{"data":{"norad_id":32763,"intl_designator":"2008-016A","name":"ICO G1","alt_names":[],"object_type":"PAYLOAD","status":"ACTIVE","operator":null,"country":"US","launch_date":"2008-04-14","launch_site_code":"AFETR","launch_vehicle":null,"mission":null,"orbit_class":"UNKNOWN","rcs_meters":14.1589,"size_class":null,"mass_kg":null,"dimensions":null,"purposes":["comms"],"wikipedia_slug":null,"has_3d_model":false,"image_url":null,"decayed_at":null,"tle_current":{"epoch":"2026-05-25T04:27:21.290112Z","epoch_age_seconds":55010,"freshness":"FRESH","line1":"1 32763U 08016A   26145.18566308 -.00000175  00000+0  00000+0 0  9993","line2":"2 32763   5.5330  36.2111 0002183  10.7881 169.7595  1.00269562 66311","mean_motion":1.00269562,"eccentricity":0.0002183,"inclination_deg":5.533,"raan_deg":36.2111,"arg_perigee_deg":10.7881,"mean_anomaly_deg":169.7595,"bstar":0,"rev_number":6631,"period_min":1436.1287426388,"perigee_km":35778.01346327,"apogee_km":35796.422857333,"semimajor_km":42165.355160301,"source":"CELESTRAK","updated_at":"2026-05-25T13:38:13.857132Z"}}}